Molokai, HI

2:26 PM HST on March 23, 2017 (GMT -1000)
Molokai

Weather History for PHMK - March, 2014

Change the Weather History Date:

Friday, March 28, 2014

  Actual Average Record
Temperature  
Mean Temperature 72 °F -  
Max Temperature 80 °F 79 °F 90 °F (2004)
Min Temperature 64 °F 65 °F 60 °F (1987)
Cooling Degree Days 7    
Growing Degree Days 22 (Base 50)    
Moisture  
Dew Point 64 °F    
Average Humidity 83    
Maximum Humidity 100    
Minimum Humidity 31    
Precipitation  
Precipitation 1.30 in - - ()
Sea Level Pressure  
Sea Level Pressure 30.05 in    
Wind  
Wind Speed 3 mph (ESE)    
Max Wind Speed 14 mph    
Max Gust Speed 18 mph    
Visibility 7 miles    
Events Fog , Rain    
Averages and records for this station are not official NWS values.
T = Trace of Precipitation, MM = Missing Value Source: NWS Daily Summary

Daily Weather History Graph

Daily Weather History Graph

Search for Another Location

Airport or City:

Trip Planner

Search our weather history database for the weather conditions in past years. The results will help you decide how hot, cold, wet, or windy it might be!

Date:

Astronomy

Mar. 28, 2014 Rise Set
Actual Time 6:24 AM HST 6:42 PM HST
Civil Twilight 6:02 AM HST 7:04 PM HST
Nautical Twilight 5:36 AM HST 7:30 PM HST
Astronomical Twilight 5:10 AM HST 7:56 PM HST
Moon 4:48 AM HST (3/28) 5:02 PM HST (3/28)
Length of Visible Light 13h 01m
Length of Day
12h 17m
Waning Crescent, 5% of the Moon is Illuminated
Mar 28
Waning Crescent
Mar 30
New
Apr 6
First Quarter
Apr 14
Full
Apr 21
Last Quarter

Hourly Weather History & Observations

Time (HST) Temp. Heat Index Dew Point Humidity Pressure Visibility Wind Dir Wind Speed Gust Speed Precip Events Conditions
12:54 AM 70.0 °F - 68.0 °F 93% 30.08 in 10.0 mi NE 3.5 mph - N/A   Clear
1:54 AM - - - N/A% 30.05 in 10.0 mi Calm Calm - N/A   Clear
2:54 AM - - - N/A% 30.04 in 10.0 mi Calm Calm - N/A   Clear
3:54 AM - - - N/A% 30.03 in 10.0 mi Calm Calm - N/A   Clear
4:54 AM - - - N/A% 30.04 in 10.0 mi East 4.6 mph - 0.00 in   Partly Cloudy
5:54 AM 69.8 °F - 43.0 °F 38% 30.07 in 10.0 mi East 3.5 mph - 0.00 in   Mostly Cloudy
5:56 AM 69.8 °F - 42.8 °F 38% 30.06 in 10.0 mi ENE 3.5 mph - N/A   Scattered Clouds
6:54 AM 69.8 °F - 43.0 °F 38% 30.08 in 10.0 mi Calm Calm - N/A   Scattered Clouds
7:54 AM 69.8 °F - 42.8 °F 38% 30.09 in 10.0 mi SSE 3.5 mph - N/A   Scattered Clouds
8:54 AM 77.0 °F - 71.1 °F 82% 30.09 in 10.0 mi Calm Calm - N/A   Scattered Clouds
9:54 AM 72.0 °F - 71.1 °F 97% 30.11 in 10.0 mi Calm Calm - 0.09 in Rain Light Rain
10:01 AM 71.6 °F - 71.6 °F 100% 30.10 in 10.0 mi Calm Calm - 0.00 in   Scattered Clouds
10:54 AM 73.4 °F - 41.4 °F 31% 30.10 in 10.0 mi South 11.5 mph - 0.00 in   Scattered Clouds
11:54 AM 73.4 °F - 41.4 °F 31% 30.08 in 10.0 mi South 9.2 mph - N/A   Mostly Cloudy
12:01 PM 78.8 °F - 71.6 °F 78% 30.07 in 10.0 mi South 13.8 mph - N/A   Mostly Cloudy
12:14 PM 78.8 °F - 71.6 °F 78% 30.07 in 10.0 mi South 10.4 mph - N/A   Scattered Clouds
12:54 PM 80.1 °F 83.2 °F 70.0 °F 71% 30.06 in 10.0 mi SSE 9.2 mph - N/A   Scattered Clouds
1:54 PM 75.0 °F - 70.0 °F 84% 30.03 in 10.0 mi Variable 6.9 mph - N/A   Scattered Clouds
2:01 PM 77.0 °F - 69.8 °F 78% 30.03 in 10.0 mi Variable 4.6 mph 17.3 mph N/A   Mostly Cloudy
2:13 PM 75.2 °F - 69.8 °F 83% 30.03 in 10.0 mi East 6.9 mph - N/A   Mostly Cloudy
2:31 PM 73.4 °F - 69.8 °F 88% 30.02 in 1.8 mi ESE 10.4 mph - 0.03 in Rain Heavy Rain
2:38 PM 71.6 °F - 69.8 °F 94% 30.03 in 1.5 mi SE 6.9 mph - 0.16 in Rain Heavy Rain
2:41 PM 71.6 °F - 69.8 °F 94% 30.03 in 2.0 mi SE 3.5 mph - 0.16 in Rain Rain
2:49 PM 71.6 °F - 71.6 °F 100% 30.03 in 3.0 mi Calm Calm - 0.21 in Rain Rain
2:54 PM 71.1 °F - 71.1 °F 100% 30.03 in 5.0 mi Calm Calm - 0.22 in Rain Light Rain
3:01 PM 71.6 °F - 71.6 °F 100% 30.02 in 6.0 mi SSW 5.8 mph - 0.01 in Rain Light Rain
3:12 PM 71.6 °F - 69.8 °F 94% 30.01 in 10.0 mi Calm Calm - 0.01 in   Mostly Cloudy
3:54 PM - - - N/A% 30.01 in 6.0 mi Calm Calm - 0.02 in Rain Light Rain
4:20 PM - - - N/A% 30.02 in 1.8 mi Calm Calm - 0.00 in Rain Light Rain
4:23 PM - - - N/A% 30.02 in 0.8 mi Calm Calm - 0.04 in Rain Heavy Rain
4:31 PM - - - N/A% 30.01 in 1.5 mi ENE 3.5 mph - 0.17 in Rain Rain
4:34 PM - - - N/A% 30.01 in 3.0 mi East 3.5 mph - 0.17 in Rain Light Rain
4:51 PM - - - N/A% 30.02 in 1.8 mi NW 10.4 mph 18.4 mph 0.18 in Rain Heavy Rain
4:54 PM 68.0 °F - 66.0 °F 93% 30.02 in 0.5 mi Calm Calm - 0.27 in Fog , Rain Heavy Rain
5:04 PM 69.8 °F - 66.2 °F 88% 30.02 in 1.2 mi NNE 3.5 mph - 0.29 in Rain Rain
5:06 PM 69.8 °F - 66.2 °F 88% 30.02 in 2.5 mi Calm Calm - 0.29 in Rain Light Rain
5:13 PM 69.8 °F - 68.0 °F 94% 30.02 in 10.0 mi East 3.5 mph - 0.29 in Rain Light Rain
5:45 PM 68.0 °F - 68.0 °F 100% 30.03 in 2.0 mi East 5.8 mph - 0.37 in Rain Heavy Rain
5:52 PM 68.0 °F - 68.0 °F 100% 30.03 in 1.5 mi ENE 4.6 mph - 0.42 in Rain Heavy Rain
5:54 PM 68.0 °F - 68.0 °F 100% 30.04 in 4.0 mi ENE 5.8 mph - 0.47 in Rain Heavy Rain
6:01 PM 68.0 °F - 68.0 °F 100% 30.03 in 2.0 mi ENE 3.5 mph - 0.08 in Rain Heavy Rain
6:30 PM - - - N/A% 30.04 in 8.0 mi Calm Calm - 0.22 in Rain Light Rain
6:54 PM - - - N/A% 30.05 in 8.0 mi Calm Calm - 0.23 in   Mostly Cloudy
7:54 PM 68.0 °F - 68.0 °F 100% 30.06 in 7.0 mi South 3.5 mph - N/A   Clear
8:54 PM 66.0 °F - 66.0 °F 100% 30.07 in 7.0 mi Calm Calm - N/A   Clear
9:54 PM 66.0 °F - 66.0 °F 100% 30.09 in 8.0 mi Calm Calm - N/A   Clear
10:54 PM 64.9 °F - 64.9 °F 100% 30.09 in 9.0 mi ENE 4.6 mph - N/A   Clear
11:54 PM 64.9 °F - 64.9 °F 100% 30.08 in 9.0 mi ENE 3.5 mph - N/A   Clear